Location: *
(51.0333°S, 178.4667°E)
Time: 03:15:53
(UTC+00:00)

FALCON 9 DEB - Pass Details

Date: 15 November 2019
Orbit: 430 x 444 km, 53.0° (Epoch: 08 December)

Event Time Altitude Azimuth Distance (km) Brightness Sun altitude
Rises 08:20:03 0° 252° (WSW) 2,476 8.4 -6.7°
Reaches altitude 10° 08:22:12 10° 253° (WSW) 1,601 7.2 -6.9°
Maximum altitude 08:25:48 78° 338° (NNW) 471 3.2 -7.3°
Drops below altitude 10° 08:29:23 10° 64° (ENE) 1,589 5.4 -7.8°
Enters shadow 08:29:29 - 64° (ENE) 1,628 5.4 -7.8°
